Weather History for Lincoln, NE

Change the Weather History Date:

Monday, September 24, 2012

  Actual Average Record
Temperature  
Mean Temperature 57 °F 62 °F  
Max Temperature 75 °F 75 °F 93 °F (2005)
Min Temperature 39 °F 49 °F 31 °F (1942)
Degree Days  
Heating Degree Days 8 5  
Month to date heating degree days 74 57  
Since 1 July heating degree days 81 63  
Cooling Degree Days 0 2  
Month to date cooling degree days 97 112  
Year to date cooling degree days 1489 1147  
Growing Degree Days 7 (Base 50)    
Moisture  
Dew Point 43 °F    
Average Humidity 60    
Maximum Humidity 85    
Minimum Humidity 35    
Precipitation  
Precipitation T in 0.09 in 1.74 in (1913)
Month to date precipitation 1.73 2.50  
Year to date precipitation 15.57 24.08  
Snow  
Snow 0.00 in 0.00 in - ()
Month to date snowfall 0.0 0.0  
Since 1 July snowfall 0.0 0.0  
Snow Depth 0.00 in    
Sea Level Pressure  
Sea Level Pressure 30.01 in    
Wind  
Wind Speed 4 mph (East)    
Max Wind Speed 13 mph    
Max Gust Speed 16 mph    
Visibility 10 miles    
Events Rain    
T = Trace of Precipitation, MM = Missing Value Source: NWS Daily Summary

Daily Weather History Graph

Daily Weather History Graph

Search for Another Location

Airport:

Trip Planner

Search our weather history database for the weather conditions in past years. The results will help you decide how hot, cold, wet, or windy it might be!

Date:

Astronomy

Sep. 24, 2012 Rise Set
Actual Time 7:17 AM CDT 7:19 PM CDT
Civil Twilight 6:49 AM CDT 7:47 PM CDT
Nautical Twilight 6:17 AM CDT 8:19 PM CDT
Astronomical Twilight 5:45 AM CDT 8:51 PM CDT
Moon 4:08 PM CDT (9/24) 1:32 AM CDT (9/24)
Length of Visible Light 12h 57m
Length of Day
12h 02m
Waxing Gibbous, 71% of the Moon is Illuminated
Sep 24
Waxing Gibbous
Sep 29
Full
Oct 8
Last Quarter
Oct 15
New
Oct 21
First Quarter

Hourly Weather History & Observations

Time (CDT) Temp. Windchill Dew Point Humidity Pressure Visibility Wind Dir Wind Speed Gust Speed Precip Events Conditions
12:54 AM 52.0 °F - 35.1 °F 53% 30.19 in 10.0 mi SSE 3.5 mph - N/A   Clear
1:54 AM 52.0 °F - 35.1 °F 53% 30.19 in 10.0 mi Calm Calm - N/A   Clear
2:54 AM 48.0 °F - 36.0 °F 63% 30.17 in 10.0 mi Calm Calm - N/A   Clear
3:54 AM 42.1 °F 40.2 °F 37.0 °F 82% 30.16 in 10.0 mi North 3.5 mph - N/A   Clear
4:54 AM 42.1 °F - 37.0 °F 82% 30.14 in 10.0 mi Calm Calm - N/A   Clear
5:54 AM 39.9 °F 37.8 °F 36.0 °F 86% 30.14 in 10.0 mi North 3.5 mph - N/A   Clear
6:54 AM 43.0 °F - 37.9 °F 82% 30.12 in 10.0 mi Calm Calm - N/A   Clear
7:54 AM 42.1 °F - 37.0 °F 82% 30.11 in 10.0 mi Calm Calm - N/A   Clear
8:54 AM 48.9 °F - 39.9 °F 71% 30.09 in 10.0 mi Calm Calm - N/A   Clear
9:54 AM 57.9 °F - 39.0 °F 49% 30.07 in 10.0 mi South 9.2 mph - N/A   Clear
10:54 AM 64.0 °F - 41.0 °F 43% 30.03 in 10.0 mi SSE 4.6 mph - N/A   Clear
11:54 AM 69.1 °F - 43.0 °F 39% 30.01 in 10.0 mi SE 4.6 mph - N/A   Clear
12:54 PM 72.0 °F - 44.1 °F 37% 29.97 in 10.0 mi East 5.8 mph - N/A   Clear
1:54 PM 73.9 °F - 45.0 °F 35% 29.93 in 10.0 mi ENE 4.6 mph - N/A   Clear
2:54 PM 73.9 °F - 46.0 °F 37% 29.91 in 10.0 mi NNE 5.8 mph - N/A   Clear
3:54 PM 75.0 °F - 46.9 °F 37% 29.88 in 10.0 mi East 6.9 mph - N/A   Clear
4:54 PM 73.0 °F - 46.9 °F 39% 29.88 in 10.0 mi ESE 4.6 mph - N/A   Clear
5:54 PM 73.0 °F - 48.0 °F 41% 29.88 in 10.0 mi East 6.9 mph - N/A   Clear
6:54 PM 71.1 °F - 48.0 °F 44% 29.86 in 10.0 mi SSE 9.2 mph - N/A   Clear
7:54 PM 69.1 °F - 48.0 °F 47% 29.85 in 10.0 mi SSE 4.6 mph - N/A   Clear
8:54 PM 68.0 °F - 48.9 °F 50% 29.85 in 10.0 mi Calm Calm - N/A   Clear
9:54 PM 63.0 °F - 52.0 °F 67% 29.85 in 10.0 mi NNE 4.6 mph - N/A   Scattered Clouds
10:54 PM 62.1 °F - 53.1 °F 72% 29.86 in 9.0 mi NNW 8.1 mph - 0.00 in Rain Light Rain
11:54 PM 63.0 °F - 53.1 °F 70% 29.86 in 10.0 mi WNW 4.6 mph - 0.00 in   Mostly Cloudy